Satellite: RS-30
Catalog number: 32953
Epoch time:      10343.75688228
Element set:     283
Inclination:      082.5011 deg
RA of node:       280.4982 deg
Eccentricity:    0.0020178
Arg of perigee:   078.7472 deg
Mean anomaly:     281.5874 deg
Mean motion:   12.43009728 rev/day
Decay rate:        1.0e-07 rev/day^2
Epoch rev:           11555
Checksum:              298

Satellite: TACSAT-3
Catalog number: 35001
Epoch time:      10343.86019615
Element set:     451
Inclination:      040.4554 deg
RA of node:       237.3506 deg
Eccentricity:    0.0023279
Arg of perigee:   243.9376 deg
Mean anomaly:     115.9049 deg
Mean motion:   15.43959127 rev/day
Decay rate:      6.698e-05 rev/day^2
Epoch rev:            8777
Checksum:              316

Satellite: PHARMSAT
Catalog number: 35002
Epoch time:      10343.83057480
Element set:     421
Inclination:      040.4700 deg
RA of node:       235.0732 deg
Eccentricity:    0.0025549
Arg of perigee:   245.8849 deg
Mean anomaly:     113.9347 deg
Mean motion:   15.44247211 rev/day
Decay rate:      5.960e-05 rev/day^2
Epoch rev:            8779
Checksum:              283

Satellite: HAWKSAT1
Catalog number: 35003
Epoch time:      10343.85170535
Element set:     457
Inclination:      040.4595 deg
RA of node:       222.9864 deg
Eccentricity:    0.0025188
Arg of perigee:   269.1669 deg
Mean anomaly:     090.6294 deg
Mean motion:   15.49852669 rev/day
Decay rate:     1.5183e-04 rev/day^2
Epoch rev:            8793
Checksum:              333

Satellite: CP6
Catalog number: 35004
Epoch time:      10342.80738742
Element set:    0458
Inclination:      040.4613 deg
RA of node:       226.4522 deg
Eccentricity:    0.0024469
Arg of perigee:   267.1123 deg
Mean anomaly:     092.6980 deg
Mean motion:   15.51674055 rev/day
Decay rate:     1.8099e-04 rev/day^2
Epoch rev:           08779
Checksum:              310

Satellite: AEROCUB3
Catalog number: 35005
Epoch time:      10343.82412639
Element set:     553
Inclination:      040.4587 deg
RA of node:       198.5894 deg
Eccentricity:    0.0024470
Arg of perigee:   297.0840 deg
Mean anomaly:     062.7505 deg
Mean motion:   15.80787148 rev/day
Decay rate:    2.58325e-03 rev/day^2
Epoch rev:            8819
Checksum:              325

Satellite: METEOR-M
Catalog number: 35865
Epoch time:      10343.71142920
Element set:     908
Inclination:      098.7359 deg
RA of node:       036.0397 deg
Eccentricity:    0.0001678
Arg of perigee:   210.9275 deg
Mean anomaly:     149.1757 deg
Mean motion:   14.21833451 rev/day
Decay rate:       1.76e-06 rev/day^2
Epoch rev:            6366
Checksum:              309

Satellite: RS-38
Catalog number: 35869
Epoch time:      10343.80424146
Element set:     919
Inclination:      098.7345 deg
RA of node:       036.1725 deg
Eccentricity:    0.0004041
Arg of perigee:   212.0080 deg
Mean anomaly:     148.0824 deg
Mean motion:   14.21995414 rev/day
Decay rate:       1.77e-06 rev/day^2
Epoch rev:            6368
Checksum:              298

/EX




More information about the Keps mailing list